Regional Weather Roundup
Issued by NWS

Home | Current Version | Previous Version | Graphics & Text | Print | Product List | Glossary On
Versions: 1 2 3 4 5 6 7 8 9 10 11 12 13 14 15 16 17 18 19 20 21 22 23 24 25 26 27 28 29 30 31 32 33 34 35 36 37 38 39 40 41 42 43 44 45 46 47 48 49 50
000
ASUS43 KMKX 251200
RWRWI

WISCONSIN REGIONAL WEATHER ROUNDUP
NATIONAL WEATHER SERVICE MILWAUKEE/SULLIVAN WI
700 AM CDT SAT OCT 25 2014

NOTE: "FAIR" INDICATES FEW OR NO CLOUDS BELOW 12,000 FEET WITH NO
SIGNIFICANT WEATHER AND/OR OBSTRUCTIONS TO VISIBILITY.

WIZ001-002-006>008-014>016-023>028-251300-
NORTHWEST WISCONSIN

CITY           SKY/WX    TMP DP  RH WIND       PRES   REMARKS
SUPERIOR ARPT  CLEAR     48  35  59 W9        29.88R
ASHLAND        CLEAR     46  35  65 SW8       29.84R
6HR MIN TEMP:  46; 6HR MAX TEMP:  54;

HAYWARD        CLEAR     49  34  56 W5        29.90R
6HR MIN TEMP:  49; 6HR MAX TEMP:  55;

SIREN          CLEAR     47  34  59 W8        29.93R
CUMBERLAND     CLEAR     46  34  61 W10       29.92R
RICE LAKE      CLEAR     45  36  69 W5        29.93R
CHETEK         CLEAR     49  37  63 W6        29.92R
LADYSMITH      CLEAR     50  37  60 W10       29.90S
EAU CLAIRE     NOT AVBL
MENOMONIE      CLEAR     50  37  60 W7        29.94R
NEW RICHMOND   CLEAR     48  35  60 W8        29.96R
OSCEOLA        CLEAR     51  36  56 W8        29.99R
$$

WIZ003>005-009-010-017-018-251300-
NORTH CENTRAL WISCONSIN

CITY           SKY/WX    TMP DP  RH WIND       PRES   REMARKS
MANITOWISH WTR CLEAR     45  38  77 W8        29.81S
ARBOR VITAE    CLEAR     51  41  69 W12       29.82R
WOODRUFF       CLEAR     51  41  69 W12       29.82R
RHINELANDER    CLEAR     45  38  76 W10       29.83R
6HR MIN TEMP:  45; 6HR MAX TEMP:  53;

EAGLE RIVER    CLEAR     49  36  61 W10       29.79S
LAND O LAKES   CLEAR     47  39  74 W7        29.79S
PHILLIPS       CLEAR     44  39  81 W3        29.86S
TOMAHAWK       CLEAR     46  39  77 W8        29.85R
MEDFORD        CLEAR     46  40  80 W8        29.87S
MERRILL        CLEAR     47  42  82 W8        29.85S
$$

WIZ029-030-035-036-043>047-251300-
CENTRAL WISCONSIN

CITY           SKY/WX    TMP DP  RH WIND       PRES   REMARKS
WAUSAU         CLEAR     48  45  89 W9        29.85R
6HR MIN TEMP:  48; 6HR MAX TEMP:  56;

MOSINEE        CLEAR     46  46 100 W7        29.88R
MARSHFIELD     CLEAR     48  42  80 W8        29.89R
6HR MIN TEMP:  48; 6HR MAX TEMP:  56;

STEVENS POINT  CLEAR     49  44  83 W7        29.87S
WAUPACA        CLEAR     52  50  94 W6        29.86R
WAUTOMA        NOT AVBL
WISC RAPIDS    CLEAR     49  44  83 NW7       29.89S
6HR MIN TEMP:  49; 6HR MAX TEMP:  55;

CAMP DOUGLAS   NOT AVBL
$$

WIZ011>013-019>022-031-037>040-048>050-251300-
NORTHEAST WISCONSIN

CITY           SKY/WX    TMP DP  RH WIND       PRES   REMARKS
ANTIGO         CLEAR     46  43  87 W8        29.83S
SHAWANO        CLEAR     53  49  87 W5        29.82S
OCONTO         CLEAR     52  52  99 W9        29.79S
STURGEON BAY   CLEAR     54  48  82 W10       29.79S
6HR MIN TEMP:  54; 6HR MAX TEMP:  55;

GREEN BAY      CLEAR     53  51  93 W8        29.82S FOG
6HR MIN TEMP:  52; 6HR MAX TEMP:  57;

MANITOWOC      NOT AVBL
APPLETON       PTCLDY    50  48  93 W8        29.84S FOG
CLINTONVILLE   CLEAR     52  48  87 W7        29.83R
OSHKOSH        CLEAR     53  51  93 W6        29.85R FOG
6HR MIN TEMP:  53; 6HR MAX TEMP:  57;

$$

WIZ032>034-041-042-053>061-251300-
SOUTHWEST WISCONSIN

CITY           SKY/WX    TMP DP  RH WIND       PRES   REMARKS
LA CROSSE      FOG       44  43  96 CALM      29.95R VSB 1/4
6HR MIN TEMP:  43; 6HR MAX TEMP:  58;

SPARTA         CLEAR     42  42 100 CALM      29.93S
VIROQUA        CLEAR     51  49  96 NW7       29.94S
BOSCOBEL       FOG       50  49  96 SW6       29.95R VSB 1/4
6HR MIN TEMP:  50; 6HR MAX TEMP:  60;

PRAIRIE DU CHI   N/A     49  48  95 CALM      29.96R FOG
PLATTEVILLE    CLEAR     53  52  97 CALM      29.94F
$$

WIZ056-057-062-063-064-067-068-251300-
SOUTH CENTRAL WISCONSIN

CITY           SKY/WX    TMP DP  RH WIND       PRES   REMARKS
REEDSBURG      CLEAR     52  50  92 CALM      29.91S
BARABOO/DELLS  CLEAR     52  48  85 W6        29.91R
LONE ROCK      NOT AVBL
MINERAL POINT  PTCLDY    54  52  94 NW3       29.94R FOG
MADISON        PTCLDY    54  52  93 W5        29.90S
6HR MIN TEMP:  53; 6HR MAX TEMP:  59;

MIDDLETON      CLEAR     54  54  99 W7        29.91S
WATERTOWN      CLEAR     52  52 100 W3        29.88S FOG
MONROE         CLEAR     54  54 100 W9        29.92S FOG
JANESVILLE     CLEAR     54  52  94 W7        29.91S FOG
$$

WIZ051-052-058>065-066-070>072-251300-
SOUTHEAST WISCONSIN

CITY           SKY/WX    TMP DP  RH WIND       PRES   REMARKS
MILWAUKEE      PTCLDY    56  52  86 W9        29.88S
6HR MIN TEMP:  55; 6HR MAX TEMP:  57;

WAUKESHA       CLEAR     54  52  94 W9        29.89S FOG
MILWAUKEE/TIMM CLEAR     55  52  88 W9        29.88R FOG
RACINE         CLEAR     54  52  93 W9        29.88S FOG
6HR MIN TEMP:  53; 6HR MAX TEMP:  57;

BURLINGTON     CLEAR     52  51  99 W6        29.89S FOG
KENOSHA        CLEAR     55  53  93 W13       29.88R FOG
6HR MIN TEMP:  51; 6HR MAX TEMP:  57;

FOND DU LAC    CLEAR     54  50  86 W10       29.87R
6HR MIN TEMP:  51; 6HR MAX TEMP:  56;

SHEBOYGAN      CLEAR     55  51  86 W10       29.85R
6HR MIN TEMP:  47; 6HR MAX TEMP:  56;

WEST BEND      CLEAR     54  50  87 W12       29.87R
JUNEAU         CLEAR     53  51  94 W5        29.89S FOG
$$

LSZ147-162-251300-
LAKE SUPERIOR

STATION/POSITION TIME  TEMP    WIND        PRES    WAVE
                       AIR SEA DIR/SP/G            HT/PER
                 (UTC) (F)     (DEG/KT/KT) (MB)    (FT/S)
W MID LAKE BUOY  1050   51 46  260/ 21/ 25 1005.7R   4/ 5
DEVILS ISLAND    1100   53     270/ 26/ 30 1008.7R
PORT WING        1100   53     260/ 12/ 17 1010.8
SAXON HARBOR     1100   54     230/  7/ 12 1009.5
$$

LMZ867-665-643>646-251300-
LAKE MICHIGAN

STATION/POSITION TIME  TEMP    WIND        PRES    WAVE
                       AIR SEA DIR/SP/G            HT/PER
                 (UTC) (F)     (DEG/KT/KT) (MB)    (FT/S)
CHAMBERS ISLAND  1100   53     210/  7/ 10 1008.1R
N MID LAKE BUOY  1050   54 51  260/ 17/ 19 1006.1F   4/ 5
NORTHPORT PIER   1100   54     250/  6/ 12 1007.5R
SISTER BAY       1142          290/ 13/ 15   N/A
KEWAUNEE LAKESHO 1100   56     290/  8/ 11 1008.1R
SHEBOYGAN LAKESH 1100   56 51  270/ 13/ 16 1010.3S
PORT WASHINGTON  1100   57     280/  7/ 12 1011.5R
ATWATER BUOY     1100   56     250/ 14/ 17 1012.1R
MILWAUKEE LAKESH 1100   57     280/ 11/ 14   N/A
S MID LAKE BUOY  1050   55 54  270/ 17/ 21 1011.4R   1/ 3
KENOSHA   LAKESH 1100   57     260/ 11/ 15 1011.5S
$$

TC  - TEMPERATURE IN CELSIUS
VSB - VISIBILITY IN STATUTE MILES
WCI - WIND CHILL INDEX
HX  - HEAT INDEX




USA.gov is the U.S. government's official web portal to all federal, state and local government web resources and services.